Hourly Data Report for October 12, 2019

SHEARWATER RCS
NOVA SCOTIA
Current Station Operator: ECCC - MSC

44°37'47.000" N
63°30'48.000" W
24.00 m
8205092
71264
AAW

Download Data

Hourly Data (October 2019)
Hourly Data Report for October 12, 2019
TIME
LST
Temp Definition
°C
Dew Point Definition
°C
Rel Hum Definition
%
Precip. Amount Definition
mm

Wind Dir Definition
10's deg

Wind Spd Definition
km/h
Visibility Definition
km
Stn Press Definition
kPa
Hmdx Definition


Wind Chill Definition


Weather Definition


00:00 10.3 8.5 89 1.2 7 26   101.89     LegendNANA
01:00 10.5 9.2 92 0.7 6 25   101.78     LegendNANA
02:00 11.2 10.0 92 1.0 7 23   101.66     LegendNANA
03:00 11.4 10.1 91 1.3 7 29   101.56     LegendNANA
04:00 11.3 10.1 92 4.3 7 28   101.48     LegendNANA
05:00 11.4 10.2 92 2.7 7 29   101.41     LegendNANA
06:00 11.4 10.2 92 8.4 6 28   101.36     LegendNANA
07:00 11.2 10.0 92 4.9 6 30   101.30     LegendNANA
08:00 11.4 10.2 93 2.0 7 28   101.23     LegendNANA
09:00 11.9 10.7 93 0.5 7 30   101.15     LegendNANA
10:00 12.3 11.2 93 0.2 7 27   101.09     LegendNANA
11:00 12.7 11.5 93 0.0 7 24   101.02     LegendNANA
12:00 13.1 12.0 93 3.5 6 26   100.90     LegendNANA
13:00 13.5 12.5 94 0.0 6 21   100.82     LegendNANA
14:00 13.9 12.8 94 0.0 6 18   100.75     LegendNANA
15:00 14.0 13.0 94 0.0 6 13   100.72     LegendNANA
16:00 14.0 13.1 94 0.0 6 11   100.71     LegendNANA
17:00 14.0 13.1 95 0.0 4 6   100.70     LegendNANA
18:00 13.9 13.1 95 0.2 6 4   100.72     LegendNANA
19:00 13.9 13.1 95 0.2 3 3   100.72     LegendNANA
20:00 13.8 13.1 95 0.0 3 4   100.72     LegendNANA
21:00 13.6 12.8 95 0.0 0 1   100.71     LegendNANA
22:00 13.6 12.8 95 0.0 36 2   100.72     LegendNANA
23:00 13.3 12.5 95 0.0 36 5   100.69     LegendNANA

Notes on Data Quality.

Legend

  • E = Estimated
  • M = Missing
  • NA = Not Available*
  • [empty] = Indicates an unobserved value
Date modified: